Weather History for KCON - October, 2013

Change the Weather History Date:

Wednesday, October 30, 2013

  Actual Average Record
Temperature  
Mean Temperature 37 °F 44 °F  
Max Temperature 49 °F 55 °F 75 °F (1989)
Min Temperature 24 °F 32 °F 14 °F (1978)
Degree Days  
Heating Degree Days 28 21  
Month to date heating degree days 463 502  
Since 1 July heating degree days 692 737  
Cooling Degree Days 0 0  
Month to date cooling degree days 0 0  
Year to date cooling degree days 537 450  
Moisture  
Dew Point 26 °F    
Average Humidity 75    
Maximum Humidity 100    
Minimum Humidity 50    
Precipitation  
Precipitation T in 0.12 in 1.51 in (1973)
Month to date precipitation 1.16 3.91  
Year to date precipitation 34.26 33.56  
Snow  
Snow T in 0.00 in 8.60 in (2011)
Month to date snowfall T 0.0  
Since 1 July snowfall T 0.0  
Since 1 September snowfall T 0.0  
Snow Depth 0.00 in    
Sea Level Pressure  
Sea Level Pressure 30.27 in    
Wind  
Wind Speed 1 mph (West)    
Max Wind Speed 13 mph    
Max Gust Speed 17 mph    
Visibility 10 miles    
Events Snow    
T = Trace of Precipitation, MM = Missing Value Source: NWS Daily Summary

Daily Weather History Graph

Daily Weather History Graph

Search for Another Location

Airport or City:

Trip Planner

Search our weather history database for the weather conditions in past years. The results will help you decide how hot, cold, wet, or windy it might be!

Date:

Astronomy

Oct. 30, 2013 Rise Set
Actual Time 7:18 AM EDT 5:40 PM EDT
Civil Twilight 6:49 AM EDT 6:09 PM EDT
Nautical Twilight 6:15 AM EDT 6:43 PM EDT
Astronomical Twilight 5:42 AM EDT 7:16 PM EDT
Moon 2:57 AM EDT (10/30) 3:29 PM EDT (10/30)
Length of Visible Light 11h 20m
Length of Day
10h 21m
Waning Crescent, 17% of the Moon is Illuminated
Oct 30
Waning Crescent
Nov 3
New
Nov 10
First Quarter
Nov 17
Full
Nov 25
Last Quarter

Hourly Weather History & Observations

Time (EDT) Temp. Windchill Dew Point Humidity Pressure Visibility Wind Dir Wind Speed Gust Speed Precip Events Conditions
12:51 AM 24.1 °F - 19.0 °F 81% 30.36 in 10.0 mi Calm Calm - N/A   Clear
1:51 AM 25.0 °F - 21.0 °F 85% 30.35 in 10.0 mi Calm Calm - N/A   Clear
2:51 AM 25.0 °F - 21.0 °F 85% 30.34 in 10.0 mi Calm Calm - N/A   Clear
3:51 AM 27.0 °F - 21.9 °F 81% 30.32 in 10.0 mi Calm Calm - N/A   Overcast
4:51 AM 28.0 °F - 23.0 °F 81% 30.31 in 10.0 mi Calm Calm - N/A   Overcast
5:51 AM 28.9 °F - 23.0 °F 78% 30.32 in 10.0 mi Calm Calm - N/A   Overcast
6:51 AM 28.9 °F - 23.0 °F 78% 30.31 in 10.0 mi Calm Calm - N/A   Overcast
7:51 AM 30.0 °F - 24.1 °F 79% 30.31 in 10.0 mi Calm Calm - N/A   Overcast
8:51 AM 32.0 °F - 23.0 °F 69% 30.31 in 10.0 mi Calm Calm - N/A   Overcast
9:51 AM 33.1 °F - 24.1 °F 70% 30.31 in 5.0 mi Calm Calm - 0.00 in Snow Light Snow
10:51 AM 36.0 °F - 25.0 °F 64% 30.30 in 10.0 mi Calm Calm - 0.00 in   Overcast
11:51 AM 39.0 °F - 27.0 °F 62% 30.29 in 10.0 mi Calm Calm - N/A   Overcast
12:51 PM 44.1 °F - 28.9 °F 55% 30.26 in 10.0 mi Calm Calm - N/A   Overcast
1:51 PM 45.0 °F - 30.9 °F 58% 30.23 in 10.0 mi Calm Calm - N/A   Overcast
2:51 PM 46.9 °F - 32.0 °F 56% 30.21 in 10.0 mi West 8.1 mph - N/A   Partly Cloudy
3:51 PM 48.9 °F - 30.9 °F 50% 30.20 in 10.0 mi West 8.1 mph - N/A   Clear
4:51 PM 46.9 °F - 30.9 °F 54% 30.21 in 10.0 mi WNW 6.9 mph - N/A   Clear
5:51 PM 44.1 °F 42.5 °F 30.9 °F 60% 30.20 in 10.0 mi West 3.5 mph - N/A   Clear
6:51 PM 37.9 °F - 30.0 °F 73% 30.23 in 10.0 mi Calm Calm - N/A   Clear
7:51 PM 34.0 °F - 28.9 °F 82% 30.24 in 10.0 mi Calm Calm - N/A   Clear
8:51 PM 30.9 °F - 28.9 °F 92% 30.24 in 10.0 mi Calm Calm - N/A   Clear
9:51 PM 30.0 °F - 28.0 °F 92% 30.25 in 10.0 mi Calm Calm - N/A   Clear
10:51 PM 28.9 °F - 28.0 °F 96% 30.25 in 10.0 mi Calm Calm - N/A   Mostly Cloudy
11:51 PM 28.9 °F - 28.0 °F 96% 30.25 in 8.0 mi Calm Calm - N/A   Scattered Clouds